Regional Weather Roundup
Issued by NWS New Orleans/Baton Rouge, LA

Home | Current Version | Previous Version | Text Only | Print | Product List | Glossary On
Versions: 1 2 3 4 5 6 7 8 9 10 11 12 13 14 15 16 17 18 19 20 21 22 23 24 25 26 27 28 29 30 31 32 33 34 35 36 37 38 39 40 41 42 43 44 45 46 47 48 49 50
177
ASUS44 KLIX 281305
RWRLIX
NEW ORLEANS REGIONAL WEATHER ROUNDUP
NATIONAL WEATHER SERVICE NEW ORLEANS LA
700 AM CST FRI NOV 28 2014

NOTE: "FAIR" INDICATES FEW OR NO CLOUDS BELOW 12,000 FEET WITH NO
      SIGNIFICANT WEATHER AND/OR OBSTRUCTIONS TO VISIBILITY.
      SKY/WX - SKY CONDITION AND SIGNIFICANT WEATHER.
      TMP - AIR TEMPERATURE.     DP    - DEWPOINT TEMPERATURE.
      RH  - RELATIVE HUMIDITY.   PRES  - PRESSURE.
      HI  - HEAT INDEX.          WCI   - WIND CHILL INDEX.

*  THESE STATIONS ARE NOT NWS OR FAA STATIONS AND ARE NOT UNDER
   NWS QUALITY CONTROL.

LAZ038-040-048-061>063-065>067-069-281400-
SOUTHEAST LOUISIANA

CITY           SKY/WX    TMP DP  RH WIND       PRES   REMARKS
N.O. AUDUBON     N/A     43  38  81 MISG        N/A
N.O. INTL ARPT CLEAR     43  34  70 E8        30.43S
N.O. LAKEFRONT CLEAR     45  36  70 E12       30.44R
N.O. DOWNTOWN*   N/A     43  32  65 NE7       30.44R
SLIDELL        CLEAR     31  28  89 CALM      30.44R
BATON ROUGE    CLEAR     34  31  88 E5        30.43S WCI  30
BOOTHVILLE     CLEAR     51  42  71 NE7       30.42R
BELLE CHASSE   PTCLDY    35  32  88 NE3       30.43R
BOGALUSA*        N/A     31  29  91 CALM      30.46S FOG
NEW ROADS*       N/A     36  31  82 E3        30.43S
GONZALES*        N/A     34  34 100 CALM      30.43S
HAMMOND*       CLEAR     34  32  93 CALM      30.46R
HOUMA*         CLEAR     37  36  93 NE7       30.42R WCI  32
PORT FOURCHON* SUNNY     50  43  76 NE10      30.44R

$$

MSZ070-080>082-281400-
SOUTHERN MISSISSIPPI

CITY           SKY/WX    TMP DP  RH WIND       PRES   REMARKS
MCCOMB         CLEAR     32  27  81 CALM      30.43R
GULFPORT       CLEAR     33  31  92 CALM      30.44S
BILOXI         CLEAR     34  31  86 NE3       30.44R
PASCAGOULA     CLEAR     30  28  92 CALM      30.44R
STENNIS ARPT*  CLEAR     30  28  93 CALM      30.45

$$

COASTAL OBSERVATIONS
LAKE AND NEARSHORE STATIONS

STATION/POSITION TIME  TEMP    WIND        PRES    WAVE
                       AIR SEA DIR/SP/G            HT/PER
                 (UTC) (F)     (DEG/KT/KT) (MB)    (FT/S)
PASCAGOULA       1300   36      20/  5/  6 1030.3
WAVELAND YACHT   1300   40      60/  7/ 10 1029.8
GRAND ISLE       1300   50 59   60/ 11/ 14 1029.9
SOUTHWEST PASS   1300   54                 1029.6
NEW CANAL        1300   44 52   80/  6/ 10 1030.8
SHELL BEACH      1300   47 50   50/ 13/ 15 1030.2

OFFSHORE STATIONS

STATION/POSITION TIME  TEMP    WIND        PRES    WAVE
                       AIR SEA DIR/SP/G            HT/PER
                 (UTC) (F)     (DEG/KT/KT) (MB)    (FT/S)
64 S DAUPHIN ISL 1228   55 71   60/ 16/ 19 1029.8    4/ 6

$$




USA.gov is the U.S. government's official web portal to all federal, state and local government web resources and services.